Regional Weather Roundup
Issued by NWS

Home | Current Version | Previous Version | Graphics & Text | Print | Product List | Glossary On
Versions: 1 2 3 4 5 6 7 8 9 10 11 12 13 14 15 16 17 18 19 20 21 22 23 24 25 26 27 28 29 30 31 32 33 34 35 36 37 38 39 40 41 42 43 44 45 46 47 48 49 50
000
ASUS43 KFSD 240102
RWRSD

WEATHER ROUNDUP FOR SOUTH DAKOTA
NATIONAL WEATHER SERVICE SIOUX FALLS SD
800 PM CDT TUE SEP 23 2014

NOTE: "FAIR" INDICATES FEW OR NO CLOUDS BELOW 12,000 FEET WITH NO
SIGNIFICANT WEATHER AND/OR OBSTRUCTIONS TO VISIBILITY.


SDZ001>005-009-010-012>017-240200-
NORTHWEST AND NORTH CENTRAL SOUTH DAKOTA

CITY           SKY/WX    TMP DP  RH WIND       PRES   REMARKS
FAITH            N/A     66  59  78 SE10      29.90R
MOBRIDGE       CLOUDY    62  58  86 SE9       29.91R
$$

SDZ012>016-024>037-041>051-057-063-072>074-240200-
SOUTHWEST AND SOUTH CENTRAL SOUTH DAKOTA

CITY           SKY/WX    TMP DP  RH WIND       PRES   REMARKS
RAPID CTY ARPT CLEAR     71  54  54 SE5       29.94R
PIERRE         PTCLDY    63  57  81 E9        29.89R
CUSTER         CLEAR     63  50  62 CALM      30.09R
ELLSWORTH AFB  CLEAR     74  55  52 SW1       29.94R
PHILIP         PTCLDY    69  58  67 E3        29.89R
PINE RIDGE     PTCLDY    65  55  70 CALM      29.96S
WINNER         FAIR      66  59  78 SE13      29.90R
$$

SDZ004>011-016>023-039-040-240200-
NORTHEAST SOUTH DAKOTA

CITY           SKY/WX    TMP DP  RH WIND       PRES   REMARKS
ABERDEEN       LGT RAIN  58  56  93 SE7       29.98S
WATERTOWN      CLOUDY    56  55  97 SE9       30.02F FOG
SISSETON         N/A     58  56  93 S12G22    30.02S
$$

SDZ017-020-022-023-036>040-048>070-240200-
SOUTHEAST SOUTH DAKOTA

CITY           SKY/WX    TMP DP  RH WIND       PRES   REMARKS
SIOUX FALLS    LGT RAIN  62  56  80 SE14      30.04R
HURON          CLOUDY    60  58  92 SE9       29.96S
CHAMBERLAIN    PTCLDY    61  57  87 SE12G18   29.92S
MITCHELL       MOCLDY    62  58  86 SE15      29.97S
YANKTON        CLOUDY    64  55  72 S17G30    30.00S
$$

ABBREVIATIONS USED IN REMARKS
   TC - TEMPERATURE IN CELSIUS
  WCI - WIND CHILL INDEX
   HX - HEAT INDEX
  VSB - VISIBILITY



USA.gov is the U.S. government's official web portal to all federal, state and local government web resources and services.